Location: Buckeye Ditch
(40.9104°N, 122.9517°W)
Time: 00:31:26
(UTC+00:00)

SR - Pass Details

Date: 23 May 2025
Orbit: 570 x 855 km, 66.7° (Epoch: 11 June)

Event Time Altitude Azimuth Distance (km) Brightness Sun altitude
Exits shadow 07:07:02 50° 87° (E) 1,080 ? -26.8°
Drops below altitude 10° 07:11:55 10° 39° (NE) 2,483 ? -27.0°
Sets 07:14:25 0° 35° (NE) 3,407 ? -27.2°
